Volver al catálogo

METEOR 1-24

ActivoMeteoPO
NORAD 8799·PAYLOAD·🇷🇺 Russia

Lanzado Apr 7, 1976 desde Plesetsk Cosmodrome

Loading…

Próximos Pases (próximas 24 horas)

TLE

ActualizadoSource: Space-Track

Época: Sep 14, 2026, 09:08 UTC

1 08799U 76032A   26257.38057889 -.00000057  00000-0 -37710-4 0  9997
2 08799  81.2561 141.3175 0033848 322.6817  37.2003 14.11913018596560

Sigue METEOR 1-24 en tiempo real con AllMySat

Download on the App Store